Time,TemperatureF,DewpointF,PressureIn,WindDirection,WindDirectionDegrees,WindSpeedMPH,WindSpeedGustMPH,Humidity,HourlyPrecipIn,Conditions,Clouds,dailyrainin,SoftwareType,DateUTC
2013-07-21 00:01:00,77.0,72.0,29.94,SSE,165,0.0,7.0,86,0.00,,,0.00,,2013-07-21 04:01:00,
2013-07-21 00:11:00,76.0,72.0,29.94,SSE,164,2.0,6.0,86,0.00,,,0.00,,2013-07-21 04:11:00,
2013-07-21 00:22:00,76.0,72.0,29.93,SSE,153,1.0,6.0,86,0.00,,,0.00,,2013-07-21 04:22:00,
2013-07-21 00:32:00,76.0,72.0,29.94,South,170,0.0,5.0,86,0.00,,,0.00,,2013-07-21 04:32:00,
2013-07-21 00:43:00,76.0,72.0,29.94,South,174,0.0,1.0,86,0.00,,,0.00,,2013-07-21 04:43:00,
2013-07-21 00:53:00,75.0,71.0,29.93,SSE,158,0.0,4.0,87,0.00,,,0.00,,2013-07-21 04:53:00,
2013-07-21 01:02:00,75.0,71.0,29.93,SW,220,1.0,5.0,87,0.00,,,0.00,,2013-07-21 05:02:00,
2013-07-21 01:11:00,75.0,71.0,29.93,SSW,199,0.0,5.0,86,0.00,,,0.00,,2013-07-21 05:11:00,
2013-07-21 01:22:00,75.0,71.0,29.93,SSW,199,0.0,4.0,87,0.00,,,0.00,,2013-07-21 05:22:00,
2013-07-21 01:32:00,75.0,71.0,29.93,SSE,161,1.0,6.0,86,0.00,,,0.00,,2013-07-21 05:32:00,
2013-07-21 01:42:00,75.0,71.0,29.93,SSE,161,0.0,7.0,87,0.00,,,0.00,,2013-07-21 05:42:00,
2013-07-21 01:52:00,75.0,71.0,29.92,SSE,164,2.0,6.0,87,0.00,,,0.00,,2013-07-21 05:52:00,
2013-07-21 02:01:00,75.0,71.0,29.92,SSE,162,2.0,9.0,87,0.00,,,0.00,,2013-07-21 06:01:00,
2013-07-21 02:11:00,74.0,70.0,29.92,SSE,154,0.0,6.0,87,0.00,,,0.00,,2013-07-21 06:11:00,
2013-07-21 02:22:00,74.0,70.0,29.92,SSW,193,0.0,6.0,87,0.00,,,0.00,,2013-07-21 06:22:00,
2013-07-21 02:32:00,74.0,70.0,29.91,SSE,158,1.0,5.0,88,0.00,,,0.00,,2013-07-21 06:32:00,
2013-07-21 02:43:00,74.0,70.0,29.91,SSE,159,0.0,6.0,88,0.00,,,0.00,,2013-07-21 06:43:00,
2013-07-21 02:52:00,74.0,71.0,29.90,SSE,162,1.0,4.0,89,0.00,,,0.00,,2013-07-21 06:52:00,
2013-07-21 03:01:00,74.0,71.0,29.90,SSE,160,0.0,4.0,89,0.00,,,0.00,,2013-07-21 07:01:00,
2013-07-21 03:22:00,74.0,71.0,29.90,SSE,165,0.0,3.0,89,0.00,,,0.00,,2013-07-21 07:22:00,
2013-07-21 03:43:00,73.0,70.0,29.90,South,178,0.0,5.0,90,0.00,,,0.00,,2013-07-21 07:43:00,
2013-07-21 03:52:00,73.0,70.0,29.90,SSE,160,0.0,4.0,90,0.00,,,0.00,,2013-07-21 07:52:00,
2013-07-21 04:02:00,73.0,70.0,29.89,SSE,160,0.0,1.0,90,0.00,,,0.00,,2013-07-21 08:02:00,
2013-07-21 04:11:00,73.0,70.0,29.89,SSE,160,0.0,2.0,90,0.00,,,0.00,,2013-07-21 08:11:00,
2013-07-21 04:22:00,73.0,70.0,29.90,SSE,160,0.0,0.0,91,0.00,,,0.00,,2013-07-21 08:22:00,
2013-07-21 04:33:00,73.0,70.0,29.90,SSE,160,0.0,1.0,91,0.00,,,0.00,,2013-07-21 08:33:00,
2013-07-21 04:43:00,73.0,71.0,29.90,SSE,160,0.0,0.0,92,0.00,,,0.00,,2013-07-21 08:43:00,
2013-07-21 04:52:00,73.0,71.0,29.90,SSE,160,0.0,0.0,92,0.00,,,0.00,,2013-07-21 08:52:00,
2013-07-21 05:02:00,73.0,71.0,29.90,SSE,160,0.0,0.0,92,0.00,,,0.00,,2013-07-21 09:02:00,
2013-07-21 05:12:00,73.0,71.0,29.90,SSE,160,0.0,0.0,92,0.00,,,0.00,,2013-07-21 09:12:00,
2013-07-21 05:22:00,72.0,70.0,29.90,SSE,160,0.0,0.0,92,0.00,,,0.00,,2013-07-21 09:22:00,
2013-07-21 05:32:00,72.0,70.0,29.91,SSE,160,0.0,0.0,93,0.00,,,0.00,,2013-07-21 09:32:00,
2013-07-21 05:42:00,72.0,70.0,29.91,SSE,160,0.0,0.0,93,0.00,,,0.00,,2013-07-21 09:42:00,
2013-07-21 05:52:00,72.0,70.0,29.90,SSE,160,0.0,0.0,93,0.00,,,0.00,,2013-07-21 09:52:00,
2013-07-21 06:02:00,72.0,70.0,29.90,SSE,160,0.0,0.0,94,0.00,,,0.00,,2013-07-21 10:02:00,
2013-07-21 06:22:00,72.0,70.0,29.90,WSW,255,0.0,0.0,95,0.00,,,0.00,,2013-07-21 10:22:00,
2013-07-21 06:32:00,72.0,70.0,29.90,South,189,0.0,0.0,95,0.00,,,0.00,,2013-07-21 10:32:00,
2013-07-21 06:43:00,72.0,70.0,29.90,South,189,0.0,0.0,95,0.00,,,0.00,,2013-07-21 10:43:00,
2013-07-21 06:52:00,72.0,70.0,29.91,South,189,0.0,0.0,95,0.00,,,0.00,,2013-07-21 10:52:00,
2013-07-21 07:02:00,72.0,70.0,29.91,South,188,0.0,0.0,95,0.00,,,0.00,,2013-07-21 11:02:00,
2013-07-21 07:12:00,73.0,71.0,29.91,South,191,0.0,2.0,95,0.00,,,0.00,,2013-07-21 11:12:00,
2013-07-21 07:22:00,73.0,71.0,29.92,South,191,0.0,0.0,95,0.00,,,0.00,,2013-07-21 11:22:00,
2013-07-21 07:33:00,73.0,71.0,29.92,South,189,1.0,3.0,94,0.00,,,0.00,,2013-07-21 11:33:00,
2013-07-21 07:43:00,73.0,71.0,29.92,South,189,0.0,1.0,94,0.00,,,0.00,,2013-07-21 11:43:00,
2013-07-21 07:52:00,73.0,71.0,29.92,South,189,0.0,3.0,94,0.00,,,0.00,,2013-07-21 11:52:00,
2013-07-21 08:01:00,73.0,71.0,29.92,South,189,0.0,2.0,93,0.00,,,0.00,,2013-07-21 12:01:00,
2013-07-21 08:22:00,74.0,72.0,29.93,SSE,153,0.0,6.0,93,0.00,,,0.00,,2013-07-21 12:22:00,
2013-07-21 08:32:00,74.0,72.0,29.93,SSE,155,0.0,3.0,93,0.00,,,0.00,,2013-07-21 12:32:00,
2013-07-21 08:43:00,74.0,72.0,29.93,SSE,161,0.0,3.0,92,0.00,,,0.00,,2013-07-21 12:43:00,
2013-07-21 08:53:00,74.0,72.0,29.93,SSE,168,1.0,3.0,92,0.00,,,0.00,,2013-07-21 12:53:00,
2013-07-21 09:02:00,75.0,72.0,29.93,SSE,154,0.0,4.0,91,0.00,,,0.00,,2013-07-21 13:02:00,
2013-07-21 09:22:00,75.0,72.0,29.93,SSW,197,0.0,4.0,89,0.00,,,0.00,,2013-07-21 13:22:00,
2013-07-21 09:33:00,76.0,72.0,29.93,SSW,204,0.0,2.0,88,0.00,,,0.00,,2013-07-21 13:33:00,
2013-07-21 09:43:00,77.0,72.0,29.93,SW,216,0.0,2.0,86,0.00,,,0.00,,2013-07-21 13:43:00,
2013-07-21 09:52:00,77.0,72.0,29.93,SW,216,0.0,0.0,86,0.00,,,0.00,,2013-07-21 13:52:00,
2013-07-21 10:01:00,77.0,72.0,29.93,WNW,289,1.0,7.0,85,0.00,,,0.00,,2013-07-21 14:01:00,
2013-07-21 10:12:00,77.0,72.0,29.93,WNW,286,0.0,1.0,85,0.00,,,0.00,,2013-07-21 14:12:00,
2013-07-21 10:23:00,77.0,72.0,29.93,SW,217,0.0,2.0,84,0.00,,,0.00,,2013-07-21 14:23:00,
2013-07-21 10:43:00,78.0,73.0,29.93,South,184,0.0,3.0,85,0.00,,,0.00,,2013-07-21 14:43:00,
2013-07-21 10:53:00,78.0,73.0,29.93,South,184,0.0,4.0,84,0.00,,,0.00,,2013-07-21 14:53:00,
2013-07-21 11:02:00,78.0,72.0,29.94,SSE,165,1.0,5.0,83,0.00,,,0.00,,2013-07-21 15:02:00,
2013-07-21 11:22:00,79.0,73.0,29.94,WNW,297,1.0,5.0,81,0.00,,,0.00,,2013-07-21 15:22:00,
2013-07-21 11:32:00,79.0,73.0,29.93,South,178,0.0,4.0,81,0.00,,,0.00,,2013-07-21 15:32:00,
2013-07-21 11:43:00,80.0,73.0,29.93,SW,232,1.0,10.0,79,0.00,,,0.00,,2013-07-21 15:43:00,
2013-07-21 11:53:00,81.0,73.0,29.93,South,170,4.0,9.0,77,0.00,,,0.00,,2013-07-21 15:53:00,
2013-07-21 12:01:00,81.0,73.0,29.93,SSE,160,0.0,6.0,78,0.00,,,0.00,,2013-07-21 16:01:00,
2013-07-21 12:22:00,81.0,73.0,29.93,South,171,3.0,6.0,78,0.00,,,0.00,,2013-07-21 16:22:00,
2013-07-21 12:32:00,81.0,74.0,29.93,NNE,21,0.0,1.0,79,0.00,,,0.00,,2013-07-21 16:32:00,
2013-07-21 12:43:00,81.0,73.0,29.93,South,171,0.0,5.0,78,0.00,,,0.00,,2013-07-21 16:43:00,
2013-07-21 12:52:00,81.0,72.0,29.93,West,264,4.0,10.0,75,0.00,,,0.00,,2013-07-21 16:52:00,
2013-07-21 13:02:00,82.0,74.0,29.93,SW,236,1.0,3.0,76,0.00,,,0.00,,2013-07-21 17:02:00,
2013-07-21 13:11:00,81.0,73.0,29.93,WSW,258,1.0,5.0,76,0.00,,,0.00,,2013-07-21 17:11:00,
2013-07-21 13:22:00,83.0,76.0,29.93,NNW,330,0.0,4.0,79,0.00,,,0.00,,2013-07-21 17:22:00,
2013-07-21 13:33:00,83.0,74.0,29.92,West,266,0.0,3.0,74,0.00,,,0.00,,2013-07-21 17:33:00,
2013-07-21 13:43:00,83.0,73.0,29.92,South,173,0.0,4.0,71,0.00,,,0.00,,2013-07-21 17:43:00,
2013-07-21 13:53:00,84.0,74.0,29.92,WNW,287,0.0,2.0,72,0.00,,,0.00,,2013-07-21 17:53:00,
2013-07-21 14:01:00,85.0,74.0,29.92,SW,236,0.0,4.0,70,0.00,,,0.00,,2013-07-21 18:01:00,
2013-07-21 14:22:00,86.0,74.0,29.91,NW,323,0.0,4.0,67,0.00,,,0.00,,2013-07-21 18:22:00,
2013-07-21 14:32:00,85.0,74.0,29.90,NW,323,0.0,1.0,69,0.00,,,0.00,,2013-07-21 18:32:00,
2013-07-21 14:43:00,86.0,73.0,29.90,WSW,258,3.0,5.0,66,0.00,,,0.00,,2013-07-21 18:43:00,
2013-07-21 14:52:00,86.0,75.0,29.89,South,191,0.0,1.0,69,0.00,,,0.00,,2013-07-21 18:52:00,
2013-07-21 15:01:00,86.0,75.0,29.89,West,270,0.0,1.0,69,0.00,,,0.00,,2013-07-21 19:01:00,
2013-07-21 15:22:00,85.0,74.0,29.87,SW,216,0.0,1.0,69,0.00,,,0.00,,2013-07-21 19:22:00,
2013-07-21 15:32:00,86.0,75.0,29.87,SSW,197,5.0,10.0,69,0.00,,,0.00,,2013-07-21 19:32:00,
2013-07-21 15:42:00,87.0,75.0,29.87,WSW,242,0.0,1.0,67,0.00,,,0.00,,2013-07-21 19:42:00,
2013-07-21 15:52:00,86.0,73.0,29.87,SSE,160,0.0,7.0,66,0.00,,,0.00,,2013-07-21 19:52:00,
2013-07-21 16:02:00,86.0,74.0,29.85,South,170,1.0,7.0,67,0.00,,,0.00,,2013-07-21 20:02:00,
2013-07-21 16:12:00,85.0,74.0,29.85,SSE,162,0.0,5.0,70,0.00,,,0.00,,2013-07-21 20:12:00,
2013-07-21 16:22:00,85.0,74.0,29.85,South,180,3.0,6.0,70,0.00,,,0.00,,2013-07-21 20:22:00,
2013-07-21 16:32:00,86.0,75.0,29.85,SW,234,2.0,9.0,69,0.00,,,0.00,,2013-07-21 20:32:00,
2013-07-21 16:43:00,87.0,74.0,29.85,NW,319,0.0,7.0,66,0.00,,,0.00,,2013-07-21 20:43:00,
2013-07-21 16:52:00,88.0,75.0,29.84,South,172,3.0,9.0,65,0.00,,,0.00,,2013-07-21 20:52:00,
2013-07-21 17:01:00,88.0,75.0,29.85,SW,217,2.0,6.0,66,0.00,,,0.00,,2013-07-21 21:01:00,
2013-07-21 17:11:00,88.0,74.0,29.85,SSE,155,4.0,6.0,63,0.00,,,0.00,,2013-07-21 21:11:00,
2013-07-21 17:22:00,89.0,75.0,29.85,SSW,195,2.0,6.0,63,0.00,,,0.00,,2013-07-21 21:22:00,
2013-07-21 17:32:00,88.0,74.0,29.85,WNW,286,0.0,3.0,63,0.00,,,0.00,,2013-07-21 21:32:00,
2013-07-21 17:43:00,88.0,74.0,29.85,South,178,0.0,4.0,64,0.00,,,0.00,,2013-07-21 21:43:00,
2013-07-21 17:52:00,87.0,74.0,29.85,South,172,0.0,1.0,65,0.00,,,0.00,,2013-07-21 21:52:00,
2013-07-21 18:01:00,87.0,74.0,29.85,South,172,0.0,0.0,66,0.00,,,0.00,,2013-07-21 22:01:00,
2013-07-21 18:22:00,87.0,73.0,29.85,SSE,150,0.0,4.0,63,0.00,,,0.00,,2013-07-21 22:22:00,
2013-07-21 18:32:00,88.0,74.0,29.85,SW,216,0.0,1.0,63,0.00,,,0.00,,2013-07-21 22:32:00,
2013-07-21 18:43:00,88.0,74.0,29.85,SW,216,0.0,1.0,63,0.00,,,0.00,,2013-07-21 22:43:00,
2013-07-21 18:52:00,87.0,73.0,29.85,SW,216,0.0,1.0,64,0.00,,,0.00,,2013-07-21 22:52:00,
2013-07-21 19:02:00,87.0,75.0,29.85,SW,214,0.0,0.0,67,0.00,,,0.00,,2013-07-21 23:02:00,
2013-07-21 19:11:00,86.0,75.0,29.85,SW,214,0.0,0.0,70,0.00,,,0.00,,2013-07-21 23:11:00,
2013-07-21 19:22:00,85.0,74.0,29.85,SW,214,0.0,0.0,70,0.00,,,0.00,,2013-07-21 23:22:00,
2013-07-21 19:32:00,84.0,75.0,29.85,WSW,244,0.0,0.0,75,0.00,,,0.00,,2013-07-21 23:32:00,
2013-07-21 19:42:00,83.0,75.0,29.85,WSW,244,0.0,0.0,76,0.00,,,0.00,,2013-07-21 23:42:00,
2013-07-21 19:53:00,83.0,75.0,29.85,WSW,244,0.0,0.0,78,0.00,,,0.00,,2013-07-21 23:53:00,
2013-07-21 20:01:00,82.0,75.0,29.86,WSW,244,0.0,0.0,80,0.00,,,0.00,,2013-07-22 00:01:00,
2013-07-21 20:11:00,82.0,76.0,29.86,WSW,244,0.0,0.0,81,0.00,,,0.00,,2013-07-22 00:11:00,
2013-07-21 20:22:00,82.0,76.0,29.86,SSE,162,2.0,4.0,81,0.00,,,0.00,,2013-07-22 00:22:00,
2013-07-21 20:32:00,82.0,74.0,29.87,SSW,208,2.0,10.0,78,0.00,,,0.00,,2013-07-22 00:32:00,
2013-07-21 20:52:00,76.0,72.0,29.90,NW,324,0.0,11.0,88,0.74,,,0.74,,2013-07-22 00:52:00,
2013-07-21 21:02:00,75.0,73.0,29.90,SW,217,1.0,10.0,93,1.04,,,1.04,,2013-07-22 01:02:00,
2013-07-21 21:12:00,74.0,72.0,29.90,SW,214,0.0,5.0,94,1.13,,,1.13,,2013-07-22 01:12:00,
2013-07-21 21:22:00,73.0,71.0,29.90,WSW,249,1.0,12.0,93,1.22,,,1.22,,2013-07-22 01:22:00,
2013-07-21 21:42:00,72.0,70.0,29.90,SSE,163,0.0,1.0,95,1.23,,,1.30,,2013-07-22 01:42:00,
2013-07-21 21:52:00,72.0,71.0,29.89,South,187,0.0,0.0,96,0.62,,,1.31,,2013-07-22 01:52:00,
2013-07-21 22:02:00,72.0,71.0,29.90,South,187,0.0,0.0,96,0.28,,,1.32,,2013-07-22 02:02:00,
2013-07-21 22:11:00,72.0,71.0,29.90,South,187,0.0,0.0,96,0.19,,,1.32,,2013-07-22 02:11:00,
2013-07-21 22:22:00,72.0,71.0,29.90,South,187,0.0,1.0,97,0.11,,,1.33,,2013-07-22 02:22:00,
2013-07-21 22:32:00,72.0,71.0,29.90,South,187,0.0,0.0,97,0.06,,,1.34,,2013-07-22 02:32:00,
2013-07-21 22:43:00,72.0,71.0,29.90,South,187,0.0,0.0,97,0.04,,,1.34,,2013-07-22 02:43:00,
2013-07-21 22:52:00,72.0,71.0,29.91,South,187,0.0,0.0,97,0.03,,,1.34,,2013-07-22 02:52:00,
2013-07-21 23:01:00,72.0,71.0,29.90,South,187,0.0,0.0,97,0.02,,,1.34,,2013-07-22 03:01:00,
2013-07-21 23:12:00,72.0,71.0,29.90,South,187,0.0,0.0,97,0.02,,,1.34,,2013-07-22 03:12:00,
2013-07-21 23:22:00,72.0,71.0,29.90,South,187,0.0,0.0,98,0.01,,,1.34,,2013-07-22 03:22:00,
2013-07-21 23:33:00,72.0,71.0,29.90,South,187,0.0,0.0,98,0.01,,,1.34,,2013-07-22 03:33:00,
2013-07-21 23:43:00,73.0,72.0,29.89,South,187,0.0,0.0,98,0.00,,,1.34,,2013-07-22 03:43:00,
2013-07-21 23:53:00,73.0,72.0,29.89,South,187,0.0,0.0,98,0.00,,,1.34,,2013-07-22 03:53:00,